Time,TemperatureF,DewpointF,PressureIn,WindDirection,WindDirectionDegrees,WindSpeedMPH,WindSpeedGustMPH,Humidity,HourlyPrecipIn,Conditions,Clouds,dailyrainin,SoftwareType,DateUTC
2013-08-31 00:00:00,77.6,64.9,29.86,North,359,2.0,3.0,65,0.00,,---,0.00,VWS V14.01,2013-08-31 07:00:00,
2013-08-31 00:05:00,77.6,64.9,29.86,North,11,1.0,3.0,65,0.00,,---,0.00,VWS V14.01,2013-08-31 07:05:00,
2013-08-31 00:10:00,77.6,64.9,29.87,NNE,13,0.0,3.0,65,0.00,,---,0.00,VWS V14.01,2013-08-31 07:10:00,
2013-08-31 00:15:00,77.4,65.2,29.86,NNE,15,0.0,3.0,66,0.00,,---,0.00,VWS V14.01,2013-08-31 07:15:00,
2013-08-31 00:20:00,77.2,65.4,29.87,NNE,15,0.0,3.0,67,0.00,,---,0.00,VWS V14.01,2013-08-31 07:20:00,
2013-08-31 00:26:00,76.9,65.1,29.86,NNE,15,0.0,3.0,67,0.00,,---,0.00,VWS V14.01,2013-08-31 07:26:00,
2013-08-31 00:30:00,76.7,65.3,29.86,NNE,13,0.0,3.0,68,0.00,,---,0.00,VWS V15.00,2013-08-31 07:30:00,
2013-08-31 00:31:00,76.6,65.3,29.86,NNE,13,0.0,0.0,68,0.00,,---,0.00,VWS V14.01,2013-08-31 07:31:00,
2013-08-31 00:36:00,76.4,64.6,29.86,NNE,14,0.0,0.0,67,0.00,,---,0.00,VWS V14.01,2013-08-31 07:36:00,
2013-08-31 00:41:00,76.4,64.6,29.86,WNW,299,1.0,1.0,67,0.00,,---,0.00,VWS V14.01,2013-08-31 07:41:00,
2013-08-31 00:46:00,76.4,65.5,29.86,WNW,298,0.0,1.0,69,0.00,,---,0.00,VWS V14.01,2013-08-31 07:46:00,
2013-08-31 00:51:00,76.3,65.8,29.86,WNW,299,0.0,1.0,70,0.00,,---,0.00,VWS V14.01,2013-08-31 07:51:00,
2013-08-31 00:56:00,76.1,66.0,29.86,NW,324,0.0,1.0,71,0.00,,---,0.00,VWS V14.01,2013-08-31 07:56:00,
2013-08-31 01:00:00,76.0,66.3,29.86,NNW,327,0.0,1.0,72,0.00,,---,0.00,VWS V14.01,2013-08-31 08:00:00,
2013-08-31 01:01:00,76.0,66.3,29.85,NW,321,1.0,1.0,72,0.00,,---,0.00,VWS V14.01,2013-08-31 08:01:00,
2013-08-31 01:06:00,75.8,66.5,29.85,NW,321,0.0,1.0,73,0.00,,---,0.00,VWS V14.01,2013-08-31 08:06:00,
2013-08-31 01:11:00,75.6,66.7,29.85,NW,321,0.0,1.0,74,0.00,,---,0.00,VWS V14.01,2013-08-31 08:11:00,
2013-08-31 01:16:00,75.4,66.9,29.85,NW,321,0.0,1.0,75,0.00,,---,0.00,VWS V14.01,2013-08-31 08:16:00,
2013-08-31 01:21:00,75.3,66.8,29.85,NW,321,0.0,1.0,75,0.00,,---,0.00,VWS V14.01,2013-08-31 08:21:00,
2013-08-31 01:26:00,75.1,66.6,29.85,NW,321,0.0,1.0,75,0.00,,---,0.00,VWS V14.01,2013-08-31 08:26:00,
2013-08-31 01:30:00,75.0,66.6,29.85,NNW,328,0.0,1.0,75,0.00,,---,0.00,VWS V14.01,2013-08-31 08:30:00,
2013-08-31 01:31:00,75.0,66.6,29.84,NNW,328,0.0,0.0,75,0.00,,---,0.00,VWS V14.01,2013-08-31 08:31:00,
2013-08-31 01:36:00,75.0,66.9,29.84,NNW,329,0.0,0.0,76,0.00,,---,0.00,VWS V14.01,2013-08-31 08:36:00,
2013-08-31 01:42:00,74.9,66.8,29.84,North,11,0.0,0.0,76,0.00,,---,0.00,VWS V14.01,2013-08-31 08:42:00,
2013-08-31 01:47:00,74.8,66.3,29.84,NE,34,1.0,2.0,75,0.00,,---,0.00,VWS V14.01,2013-08-31 08:47:00,
2013-08-31 01:52:00,74.6,66.2,29.84,NNE,22,2.0,3.0,75,0.00,,---,0.00,VWS V14.01,2013-08-31 08:52:00,
2013-08-31 01:57:00,74.4,66.3,29.84,NNE,18,0.0,3.0,76,0.00,,---,0.00,VWS V14.01,2013-08-31 08:57:00,
2013-08-31 02:00:00,74.4,66.3,29.84,NNE,15,1.0,3.0,76,0.00,,---,0.00,VWS V14.01,2013-08-31 09:00:00,
2013-08-31 02:02:00,74.4,66.3,29.84,NNE,14,0.0,2.0,76,0.00,,---,0.00,VWS V14.01,2013-08-31 09:02:00,
2013-08-31 02:07:00,74.2,66.2,29.83,NNE,15,0.0,2.0,76,0.00,,---,0.00,VWS V14.01,2013-08-31 09:07:00,
2013-08-31 02:12:00,74.0,66.0,29.83,NNE,15,0.0,2.0,76,0.00,,---,0.00,VWS V14.01,2013-08-31 09:12:00,
2013-08-31 02:17:00,73.9,65.9,29.83,NNE,14,0.0,2.0,76,0.00,,---,0.00,VWS V14.01,2013-08-31 09:17:00,
2013-08-31 02:22:00,73.8,66.2,29.83,NNE,16,0.0,2.0,77,0.00,,---,0.00,VWS V14.01,2013-08-31 09:22:00,
2013-08-31 02:27:00,73.4,65.8,29.83,NNE,16,0.0,2.0,77,0.00,,---,0.00,VWS V14.01,2013-08-31 09:27:00,
2013-08-31 02:30:00,73.3,65.7,29.83,NNE,16,0.0,2.0,77,0.00,,---,0.00,VWS V15.00,2013-08-31 09:30:00,
2013-08-31 02:32:00,73.1,65.8,29.83,NNE,15,0.0,0.0,78,0.00,,---,0.00,VWS V14.01,2013-08-31 09:32:00,
2013-08-31 02:37:00,72.9,66.0,29.83,NNE,15,0.0,1.0,79,0.00,,---,0.00,VWS V14.01,2013-08-31 09:37:00,
2013-08-31 02:42:00,72.7,65.8,29.83,West,279,0.0,1.0,79,0.00,,---,0.00,VWS V14.01,2013-08-31 09:42:00,
2013-08-31 02:47:00,72.6,66.1,29.83,West,280,0.0,1.0,80,0.00,,---,0.00,VWS V14.01,2013-08-31 09:47:00,
2013-08-31 02:52:00,72.2,65.3,29.83,West,280,0.0,1.0,79,0.00,,---,0.00,VWS V14.01,2013-08-31 09:52:00,
2013-08-31 02:58:00,72.0,65.5,29.83,West,280,0.0,1.0,80,0.00,,---,0.00,VWS V14.01,2013-08-31 09:58:00,
2013-08-31 03:00:00,71.9,65.4,29.83,West,280,0.0,1.0,80,0.00,,---,0.00,VWS V15.00,2013-08-31 10:00:00,
2013-08-31 03:03:00,71.9,65.4,29.83,West,280,0.0,0.0,80,0.00,,---,0.00,VWS V14.01,2013-08-31 10:03:00,
2013-08-31 03:08:00,72.2,66.1,29.83,West,265,0.0,2.0,81,0.00,,---,0.00,VWS V14.01,2013-08-31 10:08:00,
2013-08-31 03:13:00,72.5,66.3,29.83,West,265,0.0,2.0,81,0.00,,---,0.00,VWS V14.01,2013-08-31 10:13:00,
2013-08-31 03:18:00,72.7,66.2,29.83,NW,307,0.0,2.0,80,0.00,,---,0.00,VWS V14.01,2013-08-31 10:18:00,
2013-08-31 03:23:00,72.9,66.7,29.83,West,264,0.0,2.0,81,0.00,,---,0.00,VWS V14.01,2013-08-31 10:23:00,
2013-08-31 03:28:00,73.0,66.5,29.84,West,263,0.0,2.0,80,0.00,,---,0.00,VWS V14.01,2013-08-31 10:28:00,
2013-08-31 03:30:00,73.0,66.5,29.84,West,263,0.0,2.0,80,0.00,,---,0.00,VWS V14.01,2013-08-31 10:30:00,
2013-08-31 03:33:00,73.0,66.8,29.84,West,263,0.0,0.0,81,0.00,,---,0.00,VWS V14.01,2013-08-31 10:33:00,
2013-08-31 03:38:00,72.9,66.7,29.84,West,263,0.0,0.0,81,0.00,,---,0.00,VWS V14.01,2013-08-31 10:38:00,
2013-08-31 03:43:00,72.8,66.3,29.84,West,263,0.0,0.0,80,0.00,,---,0.00,VWS V14.01,2013-08-31 10:43:00,
2013-08-31 03:48:00,72.8,66.6,29.84,West,263,0.0,0.0,81,0.00,,---,0.00,VWS V14.01,2013-08-31 10:48:00,
2013-08-31 03:53:00,72.8,66.6,29.84,West,264,0.0,0.0,81,0.00,,---,0.00,VWS V14.01,2013-08-31 10:53:00,
2013-08-31 03:58:00,72.8,66.3,29.84,ENE,61,0.0,0.0,80,0.00,,---,0.00,VWS V14.01,2013-08-31 10:58:00,
2013-08-31 04:00:00,72.8,66.3,29.84,ENE,60,0.0,0.0,80,0.00,,---,0.00,VWS V14.01,2013-08-31 11:00:00,
2013-08-31 04:03:00,72.9,66.4,29.84,ENE,60,0.0,0.0,80,0.00,,---,0.00,VWS V14.01,2013-08-31 11:03:00,
2013-08-31 04:08:00,72.9,66.7,29.84,NE,39,0.0,0.0,81,0.00,,---,0.00,VWS V14.01,2013-08-31 11:08:00,
2013-08-31 04:13:00,72.8,66.6,29.84,NE,39,0.0,0.0,81,0.00,,---,0.00,VWS V14.01,2013-08-31 11:13:00,
2013-08-31 04:18:00,72.7,66.9,29.84,NE,56,1.0,2.0,82,0.00,,---,0.00,VWS V14.01,2013-08-31 11:18:00,
2013-08-31 04:24:00,72.6,66.8,29.84,NE,44,0.0,2.0,82,0.00,,---,0.00,VWS V14.01,2013-08-31 11:24:00,
2013-08-31 04:29:00,72.7,66.5,29.84,NE,42,1.0,3.0,81,0.00,,---,0.00,VWS V14.01,2013-08-31 11:29:00,
2013-08-31 04:30:00,72.8,66.6,29.84,NE,51,1.0,3.0,81,0.00,,---,0.00,VWS V15.00,2013-08-31 11:30:00,
2013-08-31 04:34:00,72.8,66.6,29.84,NNE,30,2.0,4.0,81,0.00,,---,0.00,VWS V14.01,2013-08-31 11:34:00,
2013-08-31 04:39:00,72.7,66.5,29.84,NE,43,1.0,4.0,81,0.00,,---,0.00,VWS V14.01,2013-08-31 11:39:00,
2013-08-31 04:44:00,72.7,66.2,29.85,NNE,33,0.0,4.0,80,0.00,,---,0.00,VWS V14.01,2013-08-31 11:44:00,
2013-08-31 04:49:00,72.8,65.9,29.85,NNE,15,3.0,4.0,79,0.00,,---,0.00,VWS V14.01,2013-08-31 11:49:00,
2013-08-31 04:54:00,72.9,65.7,29.85,NNE,22,0.0,4.0,78,0.00,,---,0.00,VWS V14.01,2013-08-31 11:54:00,
2013-08-31 04:59:00,73.0,65.7,29.85,NNE,18,0.0,4.0,78,0.00,,---,0.00,VWS V14.01,2013-08-31 11:59:00,
2013-08-31 05:00:00,73.0,65.4,29.85,NNE,18,1.0,4.0,77,0.00,,---,0.00,VWS V14.01,2013-08-31 12:00:00,
2013-08-31 05:04:00,73.0,65.4,29.85,NNE,16,0.0,2.0,77,0.00,,---,0.00,VWS V14.01,2013-08-31 12:04:00,
2013-08-31 05:09:00,73.0,65.4,29.85,North,9,0.0,2.0,77,0.00,,---,0.00,VWS V14.01,2013-08-31 12:09:00,
2013-08-31 05:14:00,73.1,65.5,29.85,NE,34,2.0,2.0,77,0.00,,---,0.00,VWS V14.01,2013-08-31 12:14:00,
2013-08-31 05:19:00,73.2,65.2,29.85,NNE,12,1.0,3.0,76,0.00,,---,0.00,VWS V14.01,2013-08-31 12:19:00,
2013-08-31 05:24:00,73.4,65.0,29.85,North,360,1.0,3.0,75,0.00,,---,0.00,VWS V14.01,2013-08-31 12:24:00,
2013-08-31 05:29:00,73.5,65.1,29.85,North,349,2.0,3.0,75,0.00,,---,0.00,VWS V14.01,2013-08-31 12:29:00,
2013-08-31 05:30:00,73.5,65.1,29.85,North,5,2.0,3.0,75,0.00,,---,0.00,VWS V14.01,2013-08-31 12:30:00,
2013-08-31 05:34:00,73.6,64.8,29.85,NNE,15,2.0,4.0,74,0.00,,---,0.00,VWS V14.01,2013-08-31 12:34:00,
2013-08-31 05:39:00,73.6,64.4,29.85,North,360,0.0,4.0,73,0.00,,---,0.00,VWS V14.01,2013-08-31 12:39:00,
2013-08-31 05:44:00,73.5,64.3,29.85,NNW,343,0.0,4.0,73,0.00,,---,0.00,VWS V14.01,2013-08-31 12:44:00,
2013-08-31 05:49:00,73.4,64.2,29.85,North,354,0.0,4.0,73,0.00,,---,0.00,VWS V14.01,2013-08-31 12:49:00,
2013-08-31 05:54:00,73.3,63.7,29.85,North,354,0.0,4.0,72,0.00,,---,0.00,VWS V14.01,2013-08-31 12:54:00,
2013-08-31 06:00:00,73.4,64.2,29.85,NNE,32,0.0,0.0,73,0.00,,---,0.00,VWS V14.01,2013-08-31 13:00:00,
2013-08-31 06:05:00,73.4,63.8,29.85,NNE,13,0.0,0.0,72,0.00,,---,0.00,VWS V14.01,2013-08-31 13:05:00,
2013-08-31 06:10:00,73.4,64.2,29.85,NNE,16,2.0,2.0,73,0.00,,---,0.00,VWS V14.01,2013-08-31 13:10:00,
2013-08-31 06:15:00,73.4,64.2,29.85,NNE,12,1.0,2.0,73,0.00,,---,0.00,VWS V14.01,2013-08-31 13:15:00,
2013-08-31 06:20:00,73.4,64.6,29.85,NE,41,2.0,3.0,74,0.00,,---,0.00,VWS V14.01,2013-08-31 13:20:00,
2013-08-31 06:25:00,73.4,64.6,29.85,NE,50,2.0,3.0,74,0.00,,---,0.00,VWS V14.01,2013-08-31 13:25:00,
2013-08-31 06:30:00,73.3,64.5,29.86,NNE,31,2.0,2.0,74,0.00,,---,0.00,VWS V14.01,2013-08-31 13:30:00,
2013-08-31 06:35:00,73.7,64.5,29.86,NE,34,1.0,3.0,73,0.00,,---,0.00,VWS V14.01,2013-08-31 13:35:00,
2013-08-31 06:40:00,74.5,64.5,29.86,NE,34,1.0,3.0,71,0.00,,---,0.00,VWS V14.01,2013-08-31 13:40:00,
2013-08-31 06:45:00,74.7,64.7,29.86,NE,43,0.0,3.0,71,0.00,,---,0.00,VWS V14.01,2013-08-31 13:45:00,
2013-08-31 06:50:00,74.9,65.7,29.86,SSW,198,2.0,3.0,73,0.00,,---,0.00,VWS V14.01,2013-08-31 13:50:00,
2013-08-31 06:55:00,75.4,66.2,29.86,ESE,120,0.0,5.0,73,0.00,,---,0.00,VWS V14.01,2013-08-31 13:55:00,
2013-08-31 07:00:00,75.9,65.8,29.86,ESE,120,0.0,0.0,71,0.00,,---,0.00,VWS V14.01,2013-08-31 14:00:00,
2013-08-31 07:05:00,76.2,66.5,29.87,SSW,200,2.0,3.0,72,0.00,,---,0.00,VWS V14.01,2013-08-31 14:05:00,
2013-08-31 07:10:00,76.0,66.3,29.87,SSE,148,3.0,3.0,72,0.00,,---,0.00,VWS V14.01,2013-08-31 14:10:00,
2013-08-31 07:15:00,75.9,66.2,29.87,SSE,155,0.0,3.0,72,0.00,,---,0.00,VWS V14.01,2013-08-31 14:15:00,
2013-08-31 07:21:00,75.9,65.8,29.87,SSE,166,0.0,3.0,71,0.00,,---,0.00,VWS V14.01,2013-08-31 14:21:00,
2013-08-31 07:26:00,76.2,66.5,29.87,SSE,166,0.0,3.0,72,0.00,,---,0.00,VWS V14.01,2013-08-31 14:26:00,
2013-08-31 07:30:00,76.3,66.6,29.87,SW,226,0.0,3.0,72,0.00,,---,0.00,VWS V14.01,2013-08-31 14:30:00,
2013-08-31 07:31:00,76.4,66.7,29.87,SW,231,0.0,0.0,72,0.00,,---,0.00,VWS V14.01,2013-08-31 14:31:00,
2013-08-31 07:36:00,76.7,66.6,29.87,SW,215,0.0,0.0,71,0.00,,---,0.00,VWS V14.01,2013-08-31 14:36:00,
2013-08-31 07:41:00,76.7,67.0,29.87,SW,233,0.0,0.0,72,0.00,,---,0.00,VWS V14.01,2013-08-31 14:41:00,
2013-08-31 07:46:00,76.8,67.1,29.87,SW,220,0.0,3.0,72,0.00,,---,0.00,VWS V14.01,2013-08-31 14:46:00,
2013-08-31 07:51:00,77.0,66.9,29.87,WSW,242,0.0,3.0,71,0.00,,---,0.00,VWS V14.01,2013-08-31 14:51:00,
2013-08-31 07:56:00,77.1,67.0,29.87,WSW,256,0.0,3.0,71,0.00,,---,0.00,VWS V14.01,2013-08-31 14:56:00,
2013-08-31 08:00:00,77.2,67.1,29.87,WSW,256,0.0,3.0,71,0.00,,---,0.00,VWS V14.01,2013-08-31 15:00:00,
2013-08-31 08:01:00,77.2,67.1,29.87,WSW,256,0.0,0.0,71,0.00,,---,0.00,VWS V14.01,2013-08-31 15:01:00,
2013-08-31 08:06:00,77.5,66.9,29.87,WSW,242,0.0,2.0,70,0.00,,---,0.00,VWS V14.01,2013-08-31 15:06:00,
2013-08-31 08:11:00,77.7,66.7,29.87,West,259,0.0,3.0,69,0.00,,---,0.00,VWS V14.01,2013-08-31 15:11:00,
2013-08-31 08:16:00,77.8,66.8,29.86,SW,225,0.0,3.0,69,0.00,,---,0.00,VWS V14.01,2013-08-31 15:16:00,
2013-08-31 08:21:00,78.4,67.4,29.87,SW,226,0.0,3.0,69,0.00,,---,0.00,VWS V14.01,2013-08-31 15:21:00,
2013-08-31 08:26:00,80.1,67.7,29.87,SW,218,0.0,3.0,66,0.00,,---,0.00,VWS V14.01,2013-08-31 15:26:00,
2013-08-31 08:30:00,80.9,67.6,29.87,SSW,200,0.0,3.0,64,0.00,,---,0.00,VWS V15.00,2013-08-31 15:30:00,
2013-08-31 08:31:00,81.5,67.7,29.87,SSW,201,3.0,3.0,63,0.00,,---,0.00,VWS V14.01,2013-08-31 15:31:00,
2013-08-31 08:37:00,82.2,68.4,29.87,SSW,204,3.0,4.0,63,0.00,,---,0.00,VWS V14.01,2013-08-31 15:37:00,
2013-08-31 08:42:00,82.8,68.0,29.87,WSW,243,3.0,5.0,61,0.00,,---,0.00,VWS V14.01,2013-08-31 15:42:00,
2013-08-31 08:47:00,83.2,67.9,29.87,SSW,193,0.0,5.0,60,0.00,,---,0.00,VWS V14.01,2013-08-31 15:47:00,
2013-08-31 08:52:00,83.2,67.9,29.87,SW,234,0.0,5.0,60,0.00,,---,0.00,VWS V14.01,2013-08-31 15:52:00,
2013-08-31 08:57:00,83.2,66.9,29.87,WSW,239,0.0,5.0,58,0.00,,---,0.00,VWS V14.01,2013-08-31 15:57:00,
2013-08-31 09:00:00,83.4,67.1,29.87,SSE,154,2.0,5.0,58,0.00,,---,0.00,VWS V15.00,2013-08-31 16:00:00,
2013-08-31 09:02:00,83.5,67.7,29.87,SE,145,0.0,2.0,59,0.00,,---,0.00,VWS V14.01,2013-08-31 16:02:00,
2013-08-31 09:07:00,83.6,67.3,29.87,South,188,1.0,2.0,58,0.00,,---,0.00,VWS V14.01,2013-08-31 16:07:00,
2013-08-31 09:12:00,83.7,66.9,29.87,WSW,246,0.0,2.0,57,0.00,,---,0.00,VWS V14.01,2013-08-31 16:12:00,
2013-08-31 09:17:00,83.9,66.5,29.87,SSW,203,0.0,2.0,56,0.00,,---,0.00,VWS V14.01,2013-08-31 16:17:00,
2013-08-31 09:22:00,84.2,66.8,29.87,SW,232,1.0,2.0,56,0.00,,---,0.00,VWS V14.01,2013-08-31 16:22:00,
2013-08-31 09:27:00,83.7,66.9,29.86,SW,221,0.0,2.0,57,0.00,,---,0.00,VWS V14.01,2013-08-31 16:27:00,
2013-08-31 09:30:00,83.7,66.9,29.87,SSW,212,0.0,2.0,57,0.00,,---,0.00,VWS V14.01,2013-08-31 16:30:00,
2013-08-31 09:32:00,83.8,67.0,29.86,WSW,242,1.0,3.0,57,0.00,,---,0.00,VWS V14.01,2013-08-31 16:32:00,
2013-08-31 09:37:00,84.0,66.6,29.86,WSW,249,0.0,3.0,56,0.00,,---,0.00,VWS V14.01,2013-08-31 16:37:00,
2013-08-31 09:43:00,84.8,67.9,29.87,West,260,2.0,4.0,57,0.00,,---,0.00,VWS V14.01,2013-08-31 16:43:00,
2013-08-31 09:48:00,84.9,66.9,29.87,SW,214,2.0,6.0,55,0.00,,---,0.00,VWS V14.01,2013-08-31 16:48:00,
2013-08-31 09:53:00,85.7,66.6,29.87,WSW,248,1.0,6.0,53,0.00,,---,0.00,VWS V14.01,2013-08-31 16:53:00,
2013-08-31 09:58:00,86.3,66.1,29.87,SSE,162,0.0,6.0,51,0.00,,---,0.00,VWS V14.01,2013-08-31 16:58:00,
2013-08-31 10:00:00,86.6,66.3,29.87,WSW,256,2.0,6.0,51,0.00,,---,0.00,VWS V14.01,2013-08-31 17:00:00,
2013-08-31 10:03:00,86.7,65.9,29.86,West,263,2.0,3.0,50,0.00,,---,0.00,VWS V14.01,2013-08-31 17:03:00,
2013-08-31 10:08:00,87.4,66.5,29.86,SSE,159,0.0,3.0,50,0.00,,---,0.00,VWS V14.01,2013-08-31 17:08:00,
2013-08-31 10:13:00,88.5,65.1,29.86,ESE,105,0.0,3.0,46,0.00,,---,0.00,VWS V14.01,2013-08-31 17:13:00,
2013-08-31 10:18:00,88.7,65.3,29.86,ESE,121,0.0,3.0,46,0.00,,---,0.00,VWS V14.01,2013-08-31 17:18:00,
2013-08-31 10:23:00,90.1,66.6,29.86,SE,124,0.0,3.0,46,0.00,,---,0.00,VWS V14.01,2013-08-31 17:23:00,
2013-08-31 10:28:00,89.9,65.7,29.86,SW,230,1.0,5.0,45,0.00,,---,0.00,VWS V14.01,2013-08-31 17:28:00,
2013-08-31 10:30:00,89.9,65.7,29.86,SW,231,2.0,5.0,45,0.00,,---,0.00,VWS V14.01,2013-08-31 17:30:00,
2013-08-31 10:33:00,89.7,65.6,29.85,ESE,115,1.0,3.0,45,0.00,,---,0.00,VWS V14.01,2013-08-31 17:33:00,
2013-08-31 10:38:00,90.3,66.7,29.85,SW,225,8.0,8.0,46,0.00,,---,0.00,VWS V14.01,2013-08-31 17:38:00,
2013-08-31 10:44:00,89.5,65.4,29.85,SSW,212,2.0,8.0,45,0.00,,---,0.00,VWS V14.01,2013-08-31 17:44:00,
2013-08-31 10:49:00,89.5,65.4,29.85,WSW,258,1.0,8.0,45,0.00,,---,0.00,VWS V14.01,2013-08-31 17:49:00,
2013-08-31 10:54:00,89.9,65.7,29.85,West,278,1.0,8.0,45,0.00,,---,0.00,VWS V14.01,2013-08-31 17:54:00,
2013-08-31 10:59:00,91.1,66.2,29.85,WSW,256,2.0,8.0,44,0.00,,---,0.00,VWS V14.01,2013-08-31 17:59:00,
2013-08-31 11:00:00,91.1,66.2,29.85,WSW,243,2.0,8.0,44,0.00,,---,0.00,VWS V14.01,2013-08-31 18:00:00,
2013-08-31 11:04:00,90.6,65.7,29.85,WSW,246,3.0,8.0,44,0.00,,---,0.00,VWS V14.01,2013-08-31 18:04:00,
2013-08-31 11:09:00,90.4,64.9,29.85,West,262,1.0,8.0,43,0.00,,---,0.00,VWS V14.01,2013-08-31 18:09:00,
2013-08-31 11:14:00,90.6,67.0,29.84,ENE,57,0.0,8.0,46,0.00,,---,0.00,VWS V14.01,2013-08-31 18:14:00,
2013-08-31 11:19:00,91.4,66.4,29.84,SW,235,7.0,8.0,44,0.00,,---,0.00,VWS V14.01,2013-08-31 18:19:00,
2013-08-31 11:24:00,91.0,66.7,29.84,SSW,207,4.0,8.0,45,0.00,,---,0.00,VWS V14.01,2013-08-31 18:24:00,
2013-08-31 11:29:00,90.9,66.0,29.84,SSE,165,1.0,8.0,44,0.00,,---,0.00,VWS V14.01,2013-08-31 18:29:00,
2013-08-31 11:30:00,90.9,66.0,29.84,SSE,165,1.0,8.0,44,0.00,,---,0.00,VWS V14.01,2013-08-31 18:30:00,
2013-08-31 11:34:00,91.3,67.0,29.84,SE,124,0.0,5.0,45,0.00,,---,0.00,VWS V14.01,2013-08-31 18:34:00,
2013-08-31 11:40:00,92.1,66.4,29.84,West,269,3.0,5.0,43,0.00,,---,0.00,VWS V14.01,2013-08-31 18:40:00,
2013-08-31 11:45:00,91.2,66.3,29.83,NNE,28,0.0,6.0,44,0.00,,---,0.00,VWS V14.01,2013-08-31 18:45:00,
2013-08-31 11:50:00,91.6,67.3,29.83,SW,219,2.0,7.0,45,0.00,,---,0.00,VWS V14.01,2013-08-31 18:50:00,
2013-08-31 11:55:00,91.4,67.7,29.83,WSW,247,5.0,8.0,46,0.00,,---,0.00,VWS V14.01,2013-08-31 18:55:00,
2013-08-31 12:00:00,91.3,67.6,29.83,SW,221,5.0,10.0,46,0.00,,---,0.00,VWS V14.01,2013-08-31 19:00:00,
2013-08-31 12:05:00,91.8,66.8,29.83,SW,233,3.0,10.0,44,0.00,,---,0.00,VWS V14.01,2013-08-31 19:05:00,
2013-08-31 12:10:00,91.8,66.8,29.83,West,266,2.0,10.0,44,0.00,,---,0.00,VWS V14.01,2013-08-31 19:10:00,
2013-08-31 12:15:00,91.7,66.1,29.82,NNW,331,0.0,10.0,43,0.00,,---,0.00,VWS V14.01,2013-08-31 19:15:00,
2013-08-31 12:20:00,92.1,66.4,29.82,SSW,192,0.0,10.0,43,0.00,,---,0.00,VWS V14.01,2013-08-31 19:20:00,
2013-08-31 12:25:00,92.3,67.2,29.81,West,280,3.0,10.0,44,0.00,,---,0.00,VWS V14.01,2013-08-31 19:25:00,
2013-08-31 12:30:00,93.2,66.7,29.81,WSW,248,2.0,6.0,42,0.00,,---,0.00,VWS V14.01,2013-08-31 19:30:00,
2013-08-31 12:35:00,93.0,67.2,29.81,SW,235,6.0,11.0,43,0.00,,---,0.00,VWS V14.01,2013-08-31 19:35:00,
2013-08-31 12:40:00,92.7,66.3,29.81,WNW,291,5.0,11.0,42,0.00,,---,0.00,VWS V14.01,2013-08-31 19:40:00,
2013-08-31 12:46:00,92.4,66.7,29.81,SW,222,4.0,11.0,43,0.00,,---,0.00,VWS V14.01,2013-08-31 19:46:00,
2013-08-31 12:51:00,92.8,66.4,29.81,WSW,257,4.0,11.0,42,0.00,,---,0.00,VWS V14.01,2013-08-31 19:51:00,
2013-08-31 12:56:00,92.6,66.2,29.80,West,262,4.0,12.0,42,0.00,,---,0.00,VWS V14.01,2013-08-31 19:56:00,
2013-08-31 13:00:00,93.0,66.5,29.80,SW,229,4.0,12.0,42,0.00,,---,0.00,VWS V14.01,2013-08-31 20:00:00,
2013-08-31 13:01:00,93.1,65.9,29.80,SW,221,4.0,6.0,41,0.00,,---,0.00,VWS V14.01,2013-08-31 20:01:00,
2013-08-31 13:06:00,92.9,65.8,29.80,NW,309,3.0,6.0,41,0.00,,---,0.00,VWS V14.01,2013-08-31 20:06:00,
2013-08-31 13:11:00,93.5,66.3,29.80,SSW,210,0.0,6.0,41,0.00,,---,0.00,VWS V14.01,2013-08-31 20:11:00,
2013-08-31 13:16:00,95.4,66.5,29.79,WSW,256,0.0,6.0,39,0.00,,---,0.00,VWS V14.01,2013-08-31 20:16:00,
2013-08-31 13:21:00,95.2,64.8,29.79,SSW,208,3.0,6.0,37,0.00,,---,0.00,VWS V14.01,2013-08-31 20:21:00,
2013-08-31 13:26:00,93.7,65.0,29.79,ESE,104,0.0,6.0,39,0.00,,---,0.00,VWS V14.01,2013-08-31 20:26:00,
2013-08-31 13:30:00,93.2,64.6,29.79,ENE,63,1.0,7.0,39,0.00,,---,0.00,VWS V14.01,2013-08-31 20:30:00,
2013-08-31 13:31:00,92.9,64.3,29.78,ESE,121,3.0,7.0,39,0.00,,---,0.00,VWS V14.01,2013-08-31 20:31:00,
2013-08-31 13:36:00,93.3,64.7,29.78,ENE,66,2.0,8.0,39,0.00,,---,0.00,VWS V14.01,2013-08-31 20:36:00,
2013-08-31 13:41:00,93.0,64.4,29.78,East,98,0.0,8.0,39,0.00,,---,0.00,VWS V14.01,2013-08-31 20:41:00,
2013-08-31 13:46:00,94.3,64.1,29.78,NE,39,3.0,8.0,37,0.00,,---,0.00,VWS V14.01,2013-08-31 20:46:00,
2013-08-31 13:51:00,94.1,64.6,29.78,ENE,72,1.0,8.0,38,0.00,,---,0.00,VWS V14.01,2013-08-31 20:51:00,
2013-08-31 13:56:00,94.9,64.6,29.77,NNE,20,4.0,8.0,37,0.00,,---,0.00,VWS V14.01,2013-08-31 20:56:00,
2013-08-31 14:00:00,95.0,63.9,29.77,East,86,1.0,8.0,36,0.00,,---,0.00,VWS V14.01,2013-08-31 21:00:00,
2013-08-31 14:01:00,94.7,63.6,29.77,WSW,243,3.0,7.0,36,0.00,,---,0.00,VWS V14.01,2013-08-31 21:01:00,
2013-08-31 14:07:00,95.6,64.4,29.77,NNW,330,4.0,7.0,36,0.00,,---,0.00,VWS V14.01,2013-08-31 21:07:00,
2013-08-31 14:12:00,95.7,63.7,29.77,NNE,25,2.0,7.0,35,0.00,,---,0.00,VWS V14.01,2013-08-31 21:12:00,
2013-08-31 14:17:00,95.7,63.7,29.77,East,89,3.0,7.0,35,0.00,,---,0.00,VWS V14.01,2013-08-31 21:17:00,
2013-08-31 14:22:00,95.9,63.9,29.76,NNW,339,0.0,7.0,35,0.00,,---,0.00,VWS V14.01,2013-08-31 21:22:00,
2013-08-31 14:27:00,96.2,63.3,29.76,NE,49,1.0,7.0,34,0.00,,---,0.00,VWS V14.01,2013-08-31 21:27:00,
2013-08-31 14:30:00,96.3,62.5,29.77,NW,314,2.0,7.0,33,0.00,,---,0.00,VWS V15.00,2013-08-31 21:30:00,
2013-08-31 14:32:00,96.5,64.4,29.76,NE,40,4.0,6.0,35,0.00,,---,0.00,VWS V14.01,2013-08-31 21:32:00,
2013-08-31 14:37:00,95.8,65.4,29.76,NW,307,1.0,11.0,37,0.00,,---,0.00,VWS V14.01,2013-08-31 21:37:00,
2013-08-31 14:42:00,95.8,63.8,29.76,WSW,253,11.0,13.0,35,0.00,,---,0.00,VWS V14.01,2013-08-31 21:42:00,
2013-08-31 14:47:00,94.8,64.5,29.76,WSW,252,5.0,14.0,37,0.00,,---,0.00,VWS V14.01,2013-08-31 21:47:00,
2013-08-31 14:52:00,94.3,64.8,29.76,West,271,4.0,14.0,38,0.00,,---,0.00,VWS V14.01,2013-08-31 21:52:00,
2013-08-31 14:57:00,94.7,65.2,29.75,WSW,245,6.0,14.0,38,0.00,,---,0.00,VWS V14.01,2013-08-31 21:57:00,
2013-08-31 15:00:00,94.7,65.2,29.75,SW,216,5.0,14.0,38,0.00,,---,0.00,VWS V14.01,2013-08-31 22:00:00,
2013-08-31 15:02:00,94.6,65.1,29.75,West,260,11.0,13.0,38,0.00,,---,0.00,VWS V14.01,2013-08-31 22:02:00,
2013-08-31 15:07:00,94.3,64.8,29.75,NNW,333,3.0,13.0,38,0.00,,---,0.00,VWS V14.01,2013-08-31 22:07:00,
2013-08-31 15:13:00,94.1,64.6,29.75,WSW,252,9.0,13.0,38,0.00,,---,0.00,VWS V14.01,2013-08-31 22:13:00,
2013-08-31 15:18:00,93.9,64.5,29.75,WNW,288,6.0,13.0,38,0.00,,---,0.00,VWS V14.01,2013-08-31 22:18:00,
2013-08-31 15:23:00,94.1,63.1,29.75,WNW,288,5.0,13.0,36,0.00,,---,0.00,VWS V14.01,2013-08-31 22:23:00,
2013-08-31 15:28:00,94.2,64.0,29.75,WSW,245,10.0,13.0,37,0.00,,---,0.00,VWS V14.01,2013-08-31 22:28:00,
2013-08-31 15:30:00,94.3,64.1,29.75,WNW,284,8.0,13.0,37,0.00,,---,0.00,VWS V14.01,2013-08-31 22:30:00,
2013-08-31 15:33:00,94.5,64.2,29.74,NW,313,3.0,13.0,37,0.00,,---,0.00,VWS V14.01,2013-08-31 22:33:00,
2013-08-31 15:38:00,94.6,63.5,29.75,WNW,284,8.0,13.0,36,0.00,,---,0.00,VWS V14.01,2013-08-31 22:38:00,
2013-08-31 15:43:00,94.0,61.4,29.74,West,271,10.0,16.0,34,0.00,,---,0.00,VWS V14.01,2013-08-31 22:43:00,
2013-08-31 15:48:00,94.4,61.7,29.74,West,270,12.0,16.0,34,0.00,,---,0.00,VWS V14.01,2013-08-31 22:48:00,
2013-08-31 15:53:00,94.4,62.5,29.74,West,260,7.0,16.0,35,0.00,,---,0.00,VWS V14.01,2013-08-31 22:53:00,
2013-08-31 15:58:00,95.0,62.3,29.74,WNW,300,3.0,16.0,34,0.00,,---,0.00,VWS V14.01,2013-08-31 22:58:00,
2013-08-31 16:00:00,95.1,62.3,29.74,NW,307,3.0,16.0,34,0.00,,---,0.00,VWS V14.01,2013-08-31 23:00:00,
2013-08-31 16:04:00,95.0,62.3,29.73,WNW,300,6.0,11.0,34,0.00,,---,0.00,VWS V14.01,2013-08-31 23:04:00,
2013-08-31 16:09:00,94.7,62.0,29.73,WSW,253,2.0,11.0,34,0.00,,---,0.00,VWS V14.01,2013-08-31 23:09:00,
2013-08-31 16:14:00,95.2,63.3,29.73,West,260,4.0,11.0,35,0.00,,---,0.00,VWS V14.01,2013-08-31 23:14:00,
2013-08-31 16:19:00,94.7,62.0,29.73,NW,312,3.0,13.0,34,0.00,,---,0.00,VWS V14.01,2013-08-31 23:19:00,
2013-08-31 16:24:00,95.4,61.8,29.73,West,277,4.0,13.0,33,0.00,,---,0.00,VWS V14.01,2013-08-31 23:24:00,
2013-08-31 16:29:00,95.4,60.9,29.74,NNW,328,2.0,13.0,32,0.00,,---,0.00,VWS V14.01,2013-08-31 23:29:00,
2013-08-31 16:30:00,95.4,60.9,29.74,WSW,245,2.0,13.0,32,0.00,,---,0.00,VWS V14.01,2013-08-31 23:30:00,
2013-08-31 16:34:00,95.3,61.7,29.73,West,262,5.0,8.0,33,0.00,,---,0.00,VWS V14.01,2013-08-31 23:34:00,
2013-08-31 16:39:00,95.2,59.8,29.74,NNW,334,1.0,10.0,31,0.00,,---,0.00,VWS V14.01,2013-08-31 23:39:00,
2013-08-31 16:44:00,95.4,58.1,29.73,North,8,3.0,10.0,29,0.00,,---,0.00,VWS V14.01,2013-08-31 23:44:00,
2013-08-31 16:49:00,95.0,58.7,29.73,North,6,2.0,11.0,30,0.00,,---,0.00,VWS V14.01,2013-08-31 23:49:00,
2013-08-31 16:54:00,94.0,59.7,29.74,WSW,257,2.0,11.0,32,0.00,,---,0.00,VWS V14.01,2013-08-31 23:54:00,
2013-08-31 16:59:00,93.4,60.0,29.73,WSW,249,1.0,2.0,33,0.00,,---,0.00,VWS V14.01,2013-08-31 23:59:00,
2013-08-31 17:00:00,93.4,60.0,29.74,NNW,345,1.0,11.0,33,0.00,,---,0.00,VWS V14.01,2013-09-01 00:00:00,
2013-08-31 17:04:00,93.0,59.7,29.74,NNW,340,1.0,11.0,33,0.00,,---,0.00,VWS V14.01,2013-09-01 00:04:00,
2013-08-31 17:10:00,92.6,61.0,29.74,NE,41,2.0,11.0,35,0.00,,---,0.00,VWS V14.01,2013-09-01 00:10:00,
2013-08-31 17:15:00,92.1,61.3,29.73,NNE,32,0.0,11.0,36,0.00,,---,0.00,VWS V14.01,2013-09-01 00:15:00,
2013-08-31 17:20:00,91.7,61.8,29.74,NNW,339,1.0,11.0,37,0.00,,---,0.00,VWS V14.01,2013-09-01 00:20:00,
2013-08-31 17:25:00,91.4,61.5,29.73,WNW,284,5.0,11.0,37,0.00,,---,0.00,VWS V14.01,2013-09-01 00:25:00,
2013-08-31 17:30:00,91.0,61.9,29.73,West,274,2.0,4.0,38,0.00,,---,0.00,VWS V14.01,2013-09-01 00:30:00,
2013-08-31 17:35:00,90.8,61.7,29.73,NW,321,4.0,5.0,38,0.00,,---,0.00,VWS V14.01,2013-09-01 00:35:00,
2013-08-31 17:40:00,90.5,59.9,29.73,NNW,334,1.0,7.0,36,0.00,,---,0.00,VWS V14.01,2013-09-01 00:40:00,
2013-08-31 17:45:00,90.5,59.1,29.73,NE,37,1.0,7.0,35,0.00,,---,0.00,VWS V14.01,2013-09-01 00:45:00,
2013-08-31 17:50:00,90.4,59.0,29.73,NW,321,4.0,7.0,35,0.00,,---,0.00,VWS V14.01,2013-09-01 00:50:00,
2013-08-31 17:55:00,90.2,59.7,29.73,NW,309,3.0,7.0,36,0.00,,---,0.00,VWS V14.01,2013-09-01 00:55:00,
2013-08-31 18:00:00,90.1,60.3,29.73,West,267,3.0,4.0,37,0.00,,---,0.00,VWS V14.01,2013-09-01 01:00:00,
2013-08-31 18:05:00,89.9,60.2,29.73,West,277,1.0,5.0,37,0.00,,---,0.00,VWS V14.01,2013-09-01 01:05:00,
2013-08-31 18:11:00,89.6,60.7,29.73,WNW,301,2.0,7.0,38,0.00,,---,0.00,VWS V14.01,2013-09-01 01:11:00,
2013-08-31 18:16:00,89.5,61.3,29.73,West,274,1.0,7.0,39,0.00,,---,0.00,VWS V14.01,2013-09-01 01:16:00,
2013-08-31 18:21:00,89.8,61.6,29.73,WNW,300,0.0,7.0,39,0.00,,---,0.00,VWS V14.01,2013-09-01 01:21:00,
2013-08-31 18:26:00,90.2,61.2,29.74,West,267,3.0,7.0,38,0.00,,---,0.00,VWS V14.01,2013-09-01 01:26:00,
2013-08-31 18:30:00,89.9,60.9,29.74,NW,309,2.0,7.0,38,0.00,,---,0.00,VWS V14.01,2013-09-01 01:30:00,
2013-08-31 18:31:00,89.7,60.7,29.74,West,278,5.0,6.0,38,0.00,,---,0.00,VWS V14.01,2013-09-01 01:31:00,
2013-08-31 18:36:00,89.3,61.1,29.74,NW,309,4.0,6.0,39,0.00,,---,0.00,VWS V14.01,2013-09-01 01:36:00,
2013-08-31 18:41:00,89.0,61.6,29.74,WNW,298,0.0,6.0,40,0.00,,---,0.00,VWS V14.01,2013-09-01 01:41:00,
2013-08-31 18:46:00,88.7,61.3,29.74,WSW,257,0.0,6.0,40,0.00,,---,0.00,VWS V14.01,2013-09-01 01:46:00,
2013-08-31 18:51:00,88.3,60.9,29.74,WNW,290,2.0,6.0,40,0.00,,---,0.00,VWS V14.01,2013-09-01 01:51:00,
2013-08-31 18:56:00,88.1,60.8,29.74,West,269,2.0,6.0,40,0.00,,---,0.00,VWS V14.01,2013-09-01 01:56:00,
2013-08-31 19:00:00,87.9,61.3,29.74,West,274,0.0,6.0,41,0.00,,---,0.00,VWS V14.01,2013-09-01 02:00:00,
2013-08-31 19:01:00,87.8,61.2,29.74,NW,320,0.0,2.0,41,0.00,,---,0.00,VWS V14.01,2013-09-01 02:01:00,
2013-08-31 19:06:00,87.6,61.0,29.74,NW,311,1.0,3.0,41,0.00,,---,0.00,VWS V14.01,2013-09-01 02:06:00,
2013-08-31 19:11:00,87.4,60.8,29.75,NNW,340,1.0,5.0,41,0.00,,---,0.00,VWS V14.01,2013-09-01 02:11:00,
2013-08-31 19:16:00,87.1,60.6,29.75,NW,323,0.0,5.0,41,0.00,,---,0.00,VWS V14.01,2013-09-01 02:16:00,
2013-08-31 19:22:00,86.8,61.0,29.75,WNW,300,0.0,5.0,42,0.00,,---,0.00,VWS V14.01,2013-09-01 02:22:00,
2013-08-31 19:27:00,86.6,60.8,29.76,NNW,333,1.0,5.0,42,0.00,,---,0.00,VWS V14.01,2013-09-01 02:27:00,
2013-08-31 19:30:00,86.5,60.7,29.76,NNW,328,0.0,5.0,42,0.00,,---,0.00,VWS V14.01,2013-09-01 02:30:00,
2013-08-31 19:32:00,86.4,60.6,29.76,NW,308,2.0,2.0,42,0.00,,---,0.00,VWS V14.01,2013-09-01 02:32:00,
2013-08-31 19:37:00,86.3,60.5,29.76,WNW,300,0.0,2.0,42,0.00,,---,0.00,VWS V14.01,2013-09-01 02:37:00,
2013-08-31 19:42:00,86.2,61.1,29.76,NW,309,0.0,2.0,43,0.00,,---,0.00,VWS V14.01,2013-09-01 02:42:00,
2013-08-31 19:47:00,85.9,60.8,29.77,North,349,0.0,2.0,43,0.00,,---,0.00,VWS V14.01,2013-09-01 02:47:00,
2013-08-31 19:52:00,85.7,61.3,29.76,NNW,330,1.0,2.0,44,0.00,,---,0.00,VWS V14.01,2013-09-01 02:52:00,
2013-08-31 19:57:00,85.5,61.1,29.77,NW,315,0.0,2.0,44,0.00,,---,0.00,VWS V14.01,2013-09-01 02:57:00,
2013-08-31 20:00:00,85.4,61.7,29.77,NW,319,0.0,2.0,45,0.00,,---,0.00,VWS V14.01,2013-09-01 03:00:00,
2013-08-31 20:02:00,85.2,61.5,29.77,NNW,333,0.0,1.0,45,0.00,,---,0.00,VWS V14.01,2013-09-01 03:02:00,
2013-08-31 20:07:00,85.0,61.3,29.77,North,1,0.0,1.0,45,0.00,,---,0.00,VWS V14.01,2013-09-01 03:07:00,
2013-08-31 20:12:00,84.7,61.7,29.77,North,349,0.0,1.0,46,0.00,,---,0.00,VWS V14.01,2013-09-01 03:12:00,
2013-08-31 20:17:00,84.6,62.2,29.77,NNW,330,1.0,1.0,47,0.00,,---,0.00,VWS V14.01,2013-09-01 03:17:00,
2013-08-31 20:22:00,84.5,62.1,29.77,North,359,0.0,1.0,47,0.00,,---,0.00,VWS V14.01,2013-09-01 03:22:00,
2013-08-31 20:28:00,84.3,62.5,29.78,North,350,0.0,1.0,48,0.00,,---,0.00,VWS V14.01,2013-09-01 03:28:00,
2013-08-31 20:30:00,84.2,62.4,29.78,North,350,0.0,1.0,48,0.00,,---,0.00,VWS V14.01,2013-09-01 03:30:00,
2013-08-31 20:33:00,84.1,62.3,29.78,North,351,0.0,0.0,48,0.00,,---,0.00,VWS V14.01,2013-09-01 03:33:00,
2013-08-31 20:38:00,83.6,62.4,29.78,North,351,0.0,0.0,49,0.00,,---,0.00,VWS V14.01,2013-09-01 03:38:00,
2013-08-31 20:43:00,83.0,63.0,29.78,NNE,18,1.0,2.0,51,0.00,,---,0.00,VWS V14.01,2013-09-01 03:43:00,
2013-08-31 20:48:00,82.5,63.7,29.78,NNE,12,1.0,3.0,53,0.00,,---,0.00,VWS V14.01,2013-09-01 03:48:00,
2013-08-31 20:53:00,82.0,63.7,29.78,NE,36,0.0,3.0,54,0.00,,---,0.00,VWS V14.01,2013-09-01 03:53:00,
2013-08-31 20:58:00,81.7,64.0,29.78,NE,35,0.0,3.0,55,0.00,,---,0.00,VWS V14.01,2013-09-01 03:58:00,
2013-08-31 21:00:00,81.6,63.9,29.78,NE,36,0.0,3.0,55,0.00,,---,0.00,VWS V14.01,2013-09-01 04:00:00,
2013-08-31 21:01:00,81.6,63.9,29.78,NE,36,0.0,1.0,55,0.00,,---,0.00,VWS V14.01,2013-09-01 04:01:00,
2013-08-31 21:02:00,81.6,63.9,29.78,NE,35,0.0,1.0,55,0.00,,---,0.00,VWS V14.01,2013-09-01 04:02:00,
2013-08-31 21:05:00,81.5,63.8,29.78,NE,52,0.0,1.0,55,0.00,,---,0.00,VWS V14.01,2013-09-01 04:05:00,
2013-08-31 21:10:00,81.4,64.2,29.78,NNE,15,0.0,1.0,56,0.00,,---,0.00,VWS V14.01,2013-09-01 04:10:00,
2013-08-31 21:15:00,81.2,64.5,29.78,NE,44,3.0,3.0,57,0.00,,---,0.00,VWS V14.01,2013-09-01 04:15:00,
2013-08-31 21:20:00,81.4,64.7,29.78,NE,34,2.0,4.0,57,0.00,,---,0.00,VWS V14.01,2013-09-01 04:20:00,
2013-08-31 21:25:00,81.4,64.7,29.78,NE,52,2.0,4.0,57,0.00,,---,0.00,VWS V14.01,2013-09-01 04:25:00,
2013-08-31 21:30:00,81.2,64.5,29.78,NE,40,4.0,4.0,57,0.00,,---,0.00,VWS V14.01,2013-09-01 04:30:00,
2013-08-31 21:35:00,81.2,64.5,29.78,NNE,18,2.0,5.0,57,0.00,,---,0.00,VWS V14.01,2013-09-01 04:35:00,
2013-08-31 21:40:00,81.2,64.5,29.78,NNE,26,4.0,5.0,57,0.00,,---,0.00,VWS V14.01,2013-09-01 04:40:00,
2013-08-31 21:45:00,81.2,64.5,29.78,NNE,30,3.0,5.0,57,0.00,,---,0.00,VWS V14.01,2013-09-01 04:45:00,
2013-08-31 21:51:00,81.0,64.3,29.78,NE,40,2.0,5.0,57,0.00,,---,0.00,VWS V14.01,2013-09-01 04:51:00,
2013-08-31 21:56:00,81.0,64.8,29.78,NE,34,1.0,5.0,58,0.00,,---,0.00,VWS V14.01,2013-09-01 04:56:00,
2013-08-31 22:00:00,80.9,64.8,29.77,NE,37,1.0,5.0,58,0.00,,---,0.00,VWS V14.01,2013-09-01 05:00:00,
2013-08-31 22:01:00,80.9,64.8,29.77,NE,52,4.0,4.0,58,0.00,,---,0.00,VWS V14.01,2013-09-01 05:01:00,
2013-08-31 22:02:00,80.9,64.8,29.78,NE,41,3.0,4.0,58,0.00,,---,0.00,VWS V14.01,2013-09-01 05:02:00,
2013-08-31 22:07:00,80.8,64.7,29.78,NNE,13,3.0,4.0,58,0.00,,---,0.00,VWS V14.01,2013-09-01 05:07:00,
2013-08-31 22:12:00,80.7,64.6,29.78,NNE,13,2.0,4.0,58,0.00,,---,0.00,VWS V14.01,2013-09-01 05:12:00,
2013-08-31 22:17:00,80.6,64.5,29.78,NNE,29,2.0,4.0,58,0.00,,---,0.00,VWS V14.01,2013-09-01 05:17:00,
2013-08-31 22:22:00,80.4,64.8,29.78,NNE,27,1.0,4.0,59,0.00,,---,0.00,VWS V14.01,2013-09-01 05:22:00,
2013-08-31 22:27:00,80.4,64.3,29.78,NNE,18,2.0,4.0,58,0.00,,---,0.00,VWS V14.01,2013-09-01 05:27:00,
2013-08-31 22:30:00,80.3,64.2,29.78,NNE,20,3.0,5.0,58,0.00,,---,0.00,VWS V14.01,2013-09-01 05:30:00,
2013-08-31 22:32:00,80.3,64.2,29.78,NNE,18,3.0,5.0,58,0.00,,---,0.00,VWS V14.01,2013-09-01 05:32:00,
2013-08-31 22:37:00,80.3,64.2,29.78,NNE,32,5.0,5.0,58,0.00,,---,0.00,VWS V14.01,2013-09-01 05:37:00,
2013-08-31 22:43:00,80.4,63.8,29.78,North,11,3.0,6.0,57,0.00,,---,0.00,VWS V14.01,2013-09-01 05:43:00,
2013-08-31 22:48:00,80.4,63.8,29.78,NE,39,2.0,6.0,57,0.00,,---,0.00,VWS V14.01,2013-09-01 05:48:00,
2013-08-31 22:53:00,80.3,63.7,29.78,NNE,18,3.0,6.0,57,0.00,,---,0.00,VWS V14.01,2013-09-01 05:53:00,
2013-08-31 22:58:00,80.2,63.6,29.77,NNE,25,3.0,6.0,57,0.00,,---,0.00,VWS V14.01,2013-09-01 05:58:00,
2013-08-31 23:00:00,80.1,63.5,29.77,North,8,2.0,6.0,57,0.00,,---,0.00,VWS V14.01,2013-09-01 06:00:00,
2013-08-31 23:03:00,80.1,63.5,29.77,NNE,23,3.0,5.0,57,0.00,,---,0.00,VWS V14.01,2013-09-01 06:03:00,
2013-08-31 23:08:00,80.0,63.4,29.78,North,356,2.0,5.0,57,0.00,,---,0.00,VWS V14.01,2013-09-01 06:08:00,
2013-08-31 23:13:00,79.9,63.3,29.78,NNE,33,1.0,5.0,57,0.00,,---,0.00,VWS V14.01,2013-09-01 06:13:00,
2013-08-31 23:18:00,79.7,63.1,29.78,NNE,29,1.0,5.0,57,0.00,,---,0.00,VWS V14.01,2013-09-01 06:18:00,
2013-08-31 23:23:00,79.7,63.1,29.79,NNE,14,1.0,5.0,57,0.00,,---,0.00,VWS V14.01,2013-09-01 06:23:00,
2013-08-31 23:28:00,79.6,63.0,29.79,NNE,27,1.0,5.0,57,0.00,,---,0.00,VWS V14.01,2013-09-01 06:28:00,
2013-08-31 23:30:00,79.6,63.0,29.79,NNE,16,2.0,5.0,57,0.00,,---,0.00,VWS V14.01,2013-09-01 06:30:00,
2013-08-31 23:33:00,79.5,63.0,29.78,NNE,20,1.0,3.0,57,0.00,,---,0.00,VWS V14.01,2013-09-01 06:33:00,
2013-08-31 23:38:00,79.4,62.9,29.78,NNE,18,1.0,3.0,57,0.00,,---,0.00,VWS V14.01,2013-09-01 06:38:00,
2013-08-31 23:43:00,79.5,62.5,29.78,NNE,23,2.0,4.0,56,0.00,,---,0.00,VWS V14.01,2013-09-01 06:43:00,
2013-08-31 23:48:00,79.6,62.5,29.78,North,5,1.0,4.0,56,0.00,,---,0.00,VWS V14.01,2013-09-01 06:48:00,
2013-08-31 23:54:00,79.5,62.5,29.79,NNE,12,1.0,4.0,56,0.00,,---,0.00,VWS V14.01,2013-09-01 06:54:00,
2013-08-31 23:59:00,79.5,62.5,29.78,NNE,33,1.0,4.0,56,0.00,,---,0.00,VWS V14.01,2013-09-01 06:59:00,